Location: Casone le Fosse
(44.6547°N, 12.1103°E)
Time: 11:41:37
(UTC+00:00)

Cosmos 1825 - Pass Details

Date: 29 October 2020
Orbit: 502 x 508 km, 82.5° (Epoch: 28 November)

Event Time Altitude Azimuth Distance (km) Brightness Sun altitude
Rises 17:10:34 0° 3° (N) 2,623 5.7 -12.3°
Reaches altitude 10° 17:12:59 10° 16° (NNE) 1,731 4.6 -12.8°
Maximum altitude 17:16:10 25° 74° (ENE) 1,056 3.2 -13.3°
Enters shadow 17:17:16 22° 101° (E) 1,154 3.4 -13.5°
